Content
SEND FEEDBACK

Daily
Averages
Monthly
Summary
United States of America

STEELVILLE, MISSOURI


Home > North America > United States > Missouri
Elevation: 700 feet     Latitude: 38 00N     Longitude: 091 22W

WEATHER
 
SELECT A DAY
Number of Records: 201,783;   Date Range: 1/1/95 - 9/21/14
 
SHARE

PRINT THIS DATA

[ ← Previous Day ]
WEATHER ALMANAC - JANUARY 31, 2013
[ Next Day → ]
[ °C ]   °F
Weather ElementAverageHighLow
Temperature23 °F34 °F (11:53 am)10 °F (10:53 pm)
Dewpoint13.3 °F21.2 °F (2:12 pm)-0.9 °F (11:53 pm)
Humidity66.7 %75 % (2:53 am)50 % (4:53 pm)
Barometer30.13 in30.43 in (11:53 pm)29.97 in (1:53 am)
Wind Speed14.6 mph24.2 mph (4:53 pm)
Wind Gust35.7 mph (4:53 pm)
Weather ElementAverage
Visibility9.2 mi
Wind DirectionWNW (278.5 °)

Weather ElementTotal
Precipitation---
Heating Degree Days43 (Base 65)
Averaged from 27 records on January 31, 2013
WEATHER CONDITIONS BREAKOUT
WIND DIRECTION BREAKOUT
WEATHER BY HOUR - JANUARY 31, 2013
[ °C ]   °F
Local TimeTemperatureDewpointHumidityBarometerVisibilityWind DirectionWind SpeedGust SpeedPrecipitationEventsConditions
1:53 AM25.0 °F17.1 °F72 %29.97 in10.0 miWest (260°)9.2 mphOvercast
2:53 AM25.0 °F18.0 °F75 %29.97 in10.0 miWest (280°)8.1 mphOvercast
3:53 AM24.1 °F16.0 °F71 %29.97 in10.0 miWest (280°)12.7 mphMostly Cloudy
4:53 AM23.0 °F16.0 °F74 %29.97 in10.0 miWest (260°)10.4 mphOvercast
5:53 AM23.0 °F16.0 °F74 %29.98 in10.0 miWSW (240°)8.1 mphOvercast
6:53 AM24.1 °F17.1 °F75 %29.99 in10.0 miWSW (240°)6.9 mphOvercast
7:53 AM25.0 °F18.0 °F75 %30.01 in10.0 miSW (230°)8.1 mphOvercast
8:53 AM26.1 °F19.0 °F75 %30.04 in10.0 miWSW (240°)11.5 mphMostly Cloudy
9:53 AM28.9 °F19.0 °F67 %30.05 in10.0 miWSW (250°)13.8 mphMostly Cloudy
10:53 AM33.1 °F21.0 °F61 %30.05 in10.0 miWest (260°)10.4 mphPartly Cloudy
11:53 AM34.0 °F21.0 °F59 %30.04 in10.0 miWest (270°)15.0 mph21.9 mphMostly Cloudy
12:53 PM33.1 °F21.0 °F61 %30.05 in10.0 miWNW (290°)18.4 mph25.3 mphOvercast
2:12 PM28.4 °F21.2 °F74 %30.06 in2.5 miWNW (300°)20.7 mph25.3 mph0.00 inSnowLight Snow
2:29 PM26.6 °F19.4 °F74 %30.07 in6.0 miWNW (290°)16.1 mph27.6 mph0.00 inSnowLight Snow
2:53 PM27.0 °F18.0 °F69 %30.12 in10.0 miWest (280°)17.3 mph24.2 mph0.00 inOvercast
3:13 PM24.8 °F17.6 °F74 %30.09 in2.0 miWNW (290°)19.6 mph25.3 mph0.00 inSnowLight Snow
3:22 PM24.8 °F17.6 °F74 %30.10 in7.0 miWNW (290°)17.3 mph25.3 mph0.00 inSnowLight Snow
3:48 PM24.8 °F12.2 °F59 %30.12 in10.0 miWNW (290°)20.7 mph33.4 mph0.00 inOvercast
3:53 PM25.0 °F10.9 °F55 %30.16 in10.0 miWest (280°)23.0 mph33.4 mph0.00 inOvercast
4:53 PM21.0 °F5.0 °F50 %30.20 in10.0 miWNW (290°)24.2 mph35.7 mphClear
5:53 PM18.0 °F5.0 °F57 %30.25 in10.0 miWNW (290°)17.3 mph24.2 mphClear
6:53 PM17.1 °F5.0 °F59 %30.28 in10.0 miWNW (300°)17.3 mph27.6 mphClear
7:53 PM14.0 °F3.0 °F62 %30.32 in10.0 miWNW (300°)19.6 mph24.2 mphClear
8:53 PM12.9 °F3.0 °F65 %30.36 in10.0 miNW (310°)12.7 mph23.0 mphClear
9:53 PM12.0 °F1.0 °F61 %30.39 in10.0 miNW (310°)16.1 mph23.0 mphClear
10:53 PM10.0 °F1.0 °F67 %30.41 in10.0 miNW (310°)9.2 mphPartly Cloudy
11:53 PM10.0 °F-0.9 °F61 %30.43 in10.0 miWNW (290°)9.2 mph18.4 mphClear
Hourly data recorded from KVIH, located miles away from Steelville, Missouri







STORIES FROM OUR PARTNERS